星链-4389 (STARLINK-4389 )

导读 | 星芒AI

STARLINK-4389 是 SpaceX Starlink 卫星互联网项目中的一颗低轨卫星,属于“星链”计划的组成部分。该卫星由 SpaceX 研制并发射,旨在为全球用户提供高速互联网服务。它运行在约 550 公里的近地轨道上,采用先进通信技术,支持宽带数据传输。作为 Starlink 群体中的一员,STARLINK-4389 有助于扩大网络覆盖范围,提升连接稳定性,特别是在偏远和网络基础设施薄弱的地区。该卫星系统通过大规模部署,推动全球互联网接入的普及与现代化。

基本信息
目录编号:
53475
目录名称:
STARLINK-4389
国际标识:
2022-099L
轨道中心:
EARTH
卫星名称:
星链-4389
卫星全名:
星链-4389 (STARLINK-4389 )
卫星状态:
在轨 (已飞行1227 天)
发射日期:
2022-08-12 UTC
国别 :
美国 (US)
星等 :
--
轨道信息
数据来源 国际轨道数据
星历时间: 2025-12-21T03:04:14+0800
11小时前
查看轨道信息
半长轴: 6941.138km
偏心率: 0.000318
轨道倾角: 97.603°
近地点辐角 79.656°
升交点赤经 112.976°
平近点角 280.503°
近地点: 560.793km
远地点: 565.209km
周期: 95.919分钟
每日圈数: 15.01263
详细信息
固有亮度:
5
最大亮度:
2.5
卫星平台:
Starlink v1.5
覆盖范围:
全球
运营商:
太空探索技术公司
运营商所在国:
美国
制造商(研发单位):
太空探索技术公司
制造商所在国:
美国
使用方式:
暂无
卫星简介
星链(Starlink)计划是由太空探索技术公司(SpaceX)提出的一个巨型低轨卫星互联网星座项目,计划在2019年至2024年间在太空搭建由约1.2万颗卫星组成的“星链”网络,其中1584颗将部署在地球上空550千米处的近地轨道,并从2020年开始工作。该卫星仍在工作。
2D轨道图
3D轨道图
轨道高度分析图
轨道倾角分析图
轨道综合分析图
查看轨道综合分析图